www.pogodaiklimat.ru

Погода и климат >> Архив погоды >> Россия >> Краснодарский край >> Анапа


АРХИВ ПОГОДЫ в Анапе

Время (UTC), дата Ветер
(напр.,м/с)
 
Видим.   Явления Облачность Т
(С)
Тd
(С)
f
(%)
Тe
(С)
Тes
(С)
Комфортность P
(гПа)
Po
(гПа)
Тmin
(С)
Tmax
(С)
R
(мм)
R24
(мм)
S
(см)
06 19.08 СВ 1 20 км 9/0
[Ac trans Ci sp]
+21.6 +16.4 72 +25 +29 комфорт 1015.7 1012.0
09 19.08 СЗ 3 20 км 8/6 600 м
[Sc Cc]
+24.9 +19.0 70 +30 +34 душно 1015.4 1011.9
12 19.08 С 3 20 км 6/5 600 м
[Sc Ci sp]
+27.9 +18.7 57 +33 +37 очень
душно
1015.0 1011.5
15 19.08 СВ 3 20 км 3/1 600 м
[Cu hum Ci sp]
+26.6 +19.2 64 +32 +33 очень
душно
1015.5 1011.9 +28.6
18 19.08 СВ 4 10 км 6/0
[Ac trans]
+23.3 +19.6 80 +30 +30 очень
душно
1016.4 1012.8
21 19.08 СВ 4 10 км 10/10 600 м
[Sc]
+22.5 +19.7 84 +29 +29 очень
душно
1016.4 1012.8
00 20.08 СВ 4 10 км 9/9 600 м
[Sc]
+22.9 +19.5 81 +29 +29 очень
душно
1015.8 1012.2
03 20.08 СВ 5 10 км 5/4 600 м
[Sc Ac trans]
+22.6 +19.8 84 +29 +29 очень
душно
1015.8 1012.2 +22.3
06 20.08 СВ 2 20 км ясно +26.7 +20.3 68 +33 +40 очень
душно
1016.3 1012.7
09 20.08 СВ 5 20 км 4/0
[Ac trans]
+31.4 +18.0 45 +36 +42 очень
душно
1015.2 1011.7
12 20.08 В 5
{11}
20 км 5/0
[Ac trans]
+33.0 +17.5 40 +37 +41 очень
душно
1014.7 1011.2
15 20.08 СВ 4
{10}
20 км 6/0
[Ac trans]
+30.2 +21.5 60 +38 +39 очень
душно
1015.2 1011.7 +33.4
18 20.08 В 2 10 км 4/3 600 м
[Cb cap Ac trans]
+26.9 +20.3 67 +33 +33 очень
душно
1016.0 1012.4
21 20.08 В 4 10 км 5/0
[Ac trans Ci]
+26.3 +19.9 68 +32 +32 очень
душно
1015.2 1011.6
00 21.08 В 3 10 км 5/0
[Ac trans Ci sp]
+25.3 +19.4 70 +31 +31 очень
душно
1014.5 1010.9
03 21.08 штиль 0 10 км 3/0
[Ac trans]
+23.6 +19.1 76 +28 +28 душно 1014.4 1010.8 +23.6
06 21.08 В 2 20 км 4/0
[Ac trans]
+26.9 +19.7 65 +33 +38 очень
душно
1013.8 1010.3 +23.4
09 21.08 С 1 20 км 3/0
[Ci fib]
+30.5 +19.7 53 +37 +53 опасность
солнечного
удара
1012.2 1008.7
12 21.08 ЮЗ 5 10 км 6/4 600 м
[Sc Ci fib]
+26.6 +22.1 76 +34 +38 очень
душно
1011.9 1008.3
15 21.08 Ю 2 10 км гроза без осадков 8/8 600 м
[Cb cap]
+26.6 +21.8 75 +34 +34 очень
душно
1010.9 1007.4 +32.5
18 21.08 СВ 2 10 км {гроза} 6/3 600 м
[Sc Ac trans]
+27.2 +20.9 68 +34 +34 очень
душно
1011.0 1007.5
21 21.08 В 3 10 км {гроза} 8/8 600 м
[Sc]
+28.5 +12.1 36 +30 +30 жарко 1010.7 1007.2
00 22.08 В 4 10 км гроза без осадков 10/10 600 м
[Cb cap]
+26.0 +13.2 45 +28 +28 жарко 1008.7 1005.2
03 22.08 СВ 2 10 км {гроза, ливн. осадки} 9/9 600 м
[Sc]
+27.2 +19.6 63 +33 +33 очень
душно
1009.7 1006.2 +25.1 0.3
06 22.08 В 3 20 км {гроза, ливн. осадки} 10/3 600 м
[Cb cap Ac trans Ci sp]
+28.3 +21.7 67 +36 +38 очень
душно
1010.3 1006.8
09 22.08 СВ 5 20 км 8/0
[Ci sp]
+32.2 +14.1 33 +34 +40 душно 1010.0 1006.5
12 22.08 В 4
{12}
20 км 10/8 600 м
[Cb cap Ci sp]
+30.5 +11.7 31 +31 +32 жарко 1010.9 1007.4
15 22.08 СВ 2 20 км 8/4 600 м
[Cb cap Ac trans Ci sp]
+30.0 +15.2 41 +33 +33 душно 1010.9 1007.4 +34.0
18 22.08 В 1 10 км 8/4 600 м
[Sc Ci sp]
+27.1 +18.2 58 +32 +32 очень
душно
1011.1 1007.6
21 22.08 СВ 5-11
{11}
10 км 8/0
[Ac trans]
+28.4 +13.2 39 +30 +30 жарко 1011.2 1007.7
00 23.08 СВ 3
{11}
10 км 8/0
[Ci sp]
+25.2 +13.4 48 +27 +27 жарко 1011.8 1008.2
03 23.08 СВ 2 10 км 8/0
[Ci sp]
+22.8 +13.2 55 +26 +26 жарко 1012.1 1008.5 +22.8
06 23.08 СВ 4 20 км 3/0
[Ci fib]
+26.6 +14.3 47 +29 +33 жарко 1012.4 1008.9 +22.7
09 23.08 СВ 4 20 км 1/0
[Ci fib]
+33.1 +13.7 31 +34 +44 очень
жарко
1012.5 1009.0
12 23.08 СВ 4 20 км 1/0
[Ci fib]
+35.7 +11.0 22 +35 +42 очень
жарко
1012.4 1008.9
15 23.08 С 2 20 км ясно +31.9 +17.8 43 +36 +37 очень
душно
1012.4 1008.9 +36.0
18 23.08 СВ 3 10 км ясно +28.1 +17.6 53 +32 +32 душно 1012.9 1009.3
21 23.08 В 3 10 км ясно +27.9 +14.5 44 +30 +30 жарко 1012.3 1008.8
00 24.08 В 3 10 км ясно +27.1 +12.2 40 +29 +29 жарко 1012.8 1009.2
03 24.08 В 2 10 км ясно +23.1 +14.8 60 +27 +27 душно 1013.7 1010.1 +23.1
06 24.08 СВ 2 20 км ясно +27.5 +14.7 46 +30 +37 жарко 1014.1 1010.6 +23.1
09 24.08 ЮЗ 1 20 км ясно +28.9 +19.6 57 +35 +52 опасность
солнечного
удара
1014.0 1010.5
12 24.08 СВ 3 20 км 3/0
[Ac trans Cc]
+35.2 +14.4 29 +36 +44 очень
жарко
1013.7 1010.2
15 24.08 СВ 2 20 км 5/0
[Ac trans]
+35.2 +14.4 29 +36 +37 очень
жарко
1013.7 1010.5 +35.4
18 24.08 Ю 3 10 км 9/0
[Ac trans]
+26.5 +23.0 81 +35 +35 очень
душно
1015.3 1011.7
21 24.08 СВ 2 10 км 9/8 600 м
[Sc Ac trans]
+26.8 +18.9 62 +32 +32 очень
душно
1014.7 1011.1
00 25.08 З 1 10 км ясно +25.7 +21.7 79 +33 +33 очень
душно
1015.1 1011.5
03 25.08 СВ 1 10 км 3/0
[Ac trans]
+23.3 +18.3 73 +29 +29 душно 1015.3 1011.7 +23.0
06 25.08 СВ 5 20 км 1/0
[Ci fib]
+27.3 +17.0 53 +31 +34 душно 1015.8 1012.3
09 25.08 СВ 4 20 км 1/0
[Ci fib]
+32.5 +17.7 41 +36 +46 очень
душно
1015.3 1011.8
12 25.08 С 3 20 км ясно +33.2 +19.3 44 +39 +47 очень
душно
1015.2 1011.7
15 25.08 СВ 3 20 км ясно +31.5 +16.7 41 +35 +36 очень
душно
1015.3 1011.8 +33.4
18 25.08 СВ 3 10 км ясно +27.4 +18.4 58 +32 +32 очень
душно
1016.1 1012.6
21 25.08 В 3 10 км ясно +26.2 +16.4 55 +30 +30 душно 1016.5 1012.9
00 26.08 В 3 10 км ясно +24.9 +15.0 54 +28 +28 жарко 1016.7 1013.1
03 26.08 СВ 3 10 км ясно +22.4 +15.4 65 +26 +26 жарко 1017.5 1013.8 +22.4

 

Местоположение метеостанции Анапа (Краснодарский край, Россия): широта 44.88 долгота 37.28 высота над уровнем моря 32 м.

В архиве по умолчанию представлена погода в Анапе за последнюю неделю. Архивные данные за месяц целиком и за предыдущие месяцы, начиная с января 2011 года, Вы можете получить, выбрав интересующий диапазон дат из раскрывающегося списка и нажав кнопку "Ввод!".


*Определитесь, кто Вы:
робот инопланетянин человек

Внимание! Время в таблицах - всемирное. Для получения местного времени необходимо прибавить поправку, которая равна 3 ч.

Смотрите также архив погоды в соседних городах и на ближайших метеорологических станциях:

Погода в Новороссийске (Краснодарский край, Россия) (48 км)
Погода в Темрюке (Краснодарский край, Россия) (50 км)
Погода в Крымске (Краснодарский край, Россия) (57 км)
Погода в Тамани (Краснодарский край, Россия) (58 км)
Погода в Геленджике (Краснодарский край, Россия) (72 км)
Погода в Опасном (Крым, Россия) (75 км)
Погода в Славянске-на-Кубани (Краснодарский край, Россия) (80 км)
Погода в Керчи (Крым, Россия) (86 км)
Погода в Джубге (Краснодарский край, Россия) (129 км)
Погода в Мысовом (Крым, Россия) (131 км)

Пояснения к столбцам:

Ветер - указаны скорость ветра в м/с - средняя за 10 мин, порывы в срок и между сроками (в фигурных скобках) и направление, откуда дует ветер: С - северный, СВ - северо-восточный, В - восточный, ЮВ - юго-восточный, Ю - южный, ЮЗ - юго-западный, З - западный, СЗ - северо-западный.
Видимость - горизонтальная дальность видимости в метрах или километрах. При видимости от 1 до 10 км при отсутствии осадков обычно наблюдается дымка, при ухудшении видимости до 1 км и менее - туман. В сухую погоду видимость может ухудшаться дымом, пылью или мглою.
Явления - указаны атмосферные явления, наблюдавшиеся в срок или в последний час перед сроком; фигурными скобками обозначены явления, наблюдавшиеся между сроками (за 1-3 часа до срока); квадратными скобками обозначены град или гололедные отложения с указанием их диаметра в мм.
Облачность - указаны через наклонную черту общая и нижняя облачность в баллах и высота нижней границы облаков в метрах; квадратными скобками обозначены формы облаков: Ci - перистые, Cs - перисто-слоистые, Cc - перисто-кучевые, Ac - высококучевые, As - высокослоистые, Sc - слоисто-кучевые, Ns - слоисто-дождевые, Cu - кучевые, Cb - кучево-дождевые. Подробнее классификацию облаков см. в Атласе облаков (PDF).
T - Температура воздуха - температура, измеренная на высоте 2 м над землей.
Td - Температура точки росы - температура, при понижении до которой содержащийся в воздухе водяной пар достигнет насыщения.
f - Относительная влажность воздуха - влажноcть воздуха, измеренная на высоте 2 м над землей.
Te - Эффективная температура - температура, которую ощущает одетый по сезону человек в тени. Характеристика душности погоды. При расчете учитывается влияние влажности воздуха и скорости ветра на теплоощущения человека.
Tes - Эффективная температура на солнце - температура, которую ощущает человек, с поправкой на солнечный нагрев. Характеристика знойности погоды. Зависит от высоты солнца над горизонтом, облачности и скорости ветра. Ночью, в пасмурную погоду, а также при ветре 12 м/с и более поправка равна нулю.
P - Атмосферное давление - приведенное к уровню моря атмосферное давление.
Po - Атмосферное давление - измеренное на уровне метеостанции атмосферное давление.
Tmin - Минимальная температура - минимум температуры воздуха на высоте 2 м над землей.
Tmax - Максимальная температура - максимум температуры воздуха на высоте 2 м над землей.
R - Количество осадков - Количество выпавших осадков за период времени, мм. При наведении курсора мыши на число - период времени, за который выпало указанное количество осадков.
R24 - Количество осадков - Количество выпавших осадков за 24 часа, мм.
S - Снежный покров - Высота снежного покрова, см. При наведении курсора мыши на число - состояние снежного покрова и степень покрытия местности в баллах.